GW7377 Weather Reports


Display with metric or nautical units.
time (UTC)temp
F
wind
direction
speed
MPH
gust
MPH
rain 1hr
in
rain 24hr
in
rain mn
in
humidity
%
barometer
mb
20260510111220 69 343 0.0 0.0 0.00 0.01 0.01 99 1015.4
20260510110720 69 344 0.0 0.0 0.00 0.01 0.01 99 1015.3
20260510110218 69 5 0.0 0.0 0.00 0.01 0.01 99 1015.2
20260510105717 69 348 0.0 0.0 0.00 0.01 0.01 99 1015.3
20260510105217 69 335 0.0 0.0 0.00 0.01 0.01 99 1015.3
20260510104715 69 344 0.0 0.0 0.00 0.01 0.01 99 1015.1
20260510104212 69 347 0.0 0.0 0.00 0.01 0.01 99 1015.2
20260510103708 69 347 0.0 0.0 0.00 0.01 0.01 99 1015.1
20260510103205 69 342 0.0 0.0 0.00 0.01 0.01 99 1015.0
20260510102700 69 357 0.0 0.0 0.00 0.01 0.01 99 1015.1
20260510102156 69 345 0.0 0.0 0.00 0.01 0.01 99 1015.0
20260510101654 70 345 0.0 0.0 0.00 0.01 0.01 99 1015.2
20260510101152 69 339 0.0 0.0 0.00 0.01 0.01 99 1015.1
20260510100652 69 347 0.0 0.0 0.00 0.01 0.01 99 1014.9
20260510100151 69 344 0.0 0.0 0.00 0.01 0.01 99 1014.8
20260510095646 69 340 0.0 0.0 0.00 0.01 0.01 99 1014.7
20260510095141 69 347 0.0 0.0 0.00 0.01 0.01 99 1014.8
20260510094640 69 347 0.0 0.0 0.00 0.01 0.01 99 1014.7
20260510094136 69 347 0.0 0.0 0.00 0.01 0.01 99 1014.5
20260510093632 69 344 0.0 0.0 0.00 0.01 0.01 99 1014.7
20260510093129 69 341 0.0 0.0 0.00 0.01 0.01 99 1014.4
20260510092626 69 344 0.0 0.0 0.00 0.01 0.01 99 1014.5
20260510092121 69 344 0.0 0.0 0.00 0.01 0.01 99 1014.3
20260510091617 69 348 0.0 0.0 0.00 0.01 0.01 99 1014.2
20260510091113 69 348 0.0 0.0 0.00 0.01 0.01 99 1014.3
20260510090611 69 351 0.0 0.0 0.00 0.01 0.01 99 1014.2
20260510090107 69 351 0.0 0.0 0.00 0.01 0.01 99 1014.0
20260510085602 69 351 0.0 0.0 0.00 0.01 0.01 99 1014.0
20260510085058 69 351 0.0 0.0 0.00 0.01 0.01 99 1014.1
20260510084554 69 351 0.0 0.0 0.00 0.01 0.01 99 1014.1
20260510084051 69 351 0.0 0.0 0.00 0.01 0.01 99 1014.1
20260510083548 69 352 0.0 0.0 0.00 0.01 0.01 99 1014.0
20260510083044 69 347 0.0 0.0 0.00 0.01 0.01 99 1014.0
20260510082541 69 342 0.0 0.0 0.00 0.01 0.01 99 1014.1
20260510082036 69 344 0.0 0.0 0.00 0.01 0.01 99 1014.1
20260510081531 69 344 0.0 0.0 0.05 0.01 0.01 99 1013.9
20260510081027 69 344 0.0 0.0 0.05 0.01 0.01 99 1013.8
20260510080526 69 344 0.0 0.0 0.00 0.00 0.00 99 1014.0
20260510080024 69 344 0.0 0.0 0.00 0.00 0.00 99 1013.9
20260510075521 69 340 0.0 0.0 0.00 0.00 0.00 99 1013.8
20260510075017 69 340 0.0 0.0 0.00 0.00 0.00 99 1013.7
20260510074516 69 342 0.0 0.0 0.00 0.00 0.00 99 1013.6
20260510074010 69 340 0.0 0.0 0.00 0.00 0.00 99 1013.6
20260510073507 70 339 0.0 0.0 0.00 0.00 0.00 99 1013.7
20260510073004 69 346 0.0 0.0 0.00 0.00 0.00 99 1013.7
20260510072500 70 351 0.0 0.0 0.00 0.00 0.00 99 1013.5
20260510071955 70 351 0.0 0.0 0.00 0.00 0.00 99 1013.6
20260510071452 70 351 0.0 0.0 0.00 0.00 0.00 99 1013.6
20260510070950 71 351 0.0 0.0 0.00 0.00 0.00 99 1013.7
20260510070447 70 353 0.0 0.0 0.00 0.00 0.00 99 1013.7
20260510065943 71 2 0.0 0.0 0.00 0.00 0.00 99 1013.7
20260510065440 71 354 0.0 0.0 0.00 0.00 0.00 99 1013.7
20260510064936 71 13 0.0 0.0 0.00 0.00 0.00 99 1013.6
20260510064434 70 353 0.0 0.0 0.00 0.00 0.00 99 1013.7
20260510063930 71 350 0.0 0.0 0.00 0.00 0.00 99 1013.8
20260510063426 71 340 0.0 0.0 0.00 0.00 0.00 99 1013.8
20260510062925 71 7 0.0 0.0 0.00 0.00 0.00 99 1013.9
20260510062424 71 13 0.0 0.0 0.00 0.00 0.00 99 1014.0
20260510061920 71 17 0.0 0.0 0.00 0.00 0.00 99 1014.0
20260510061417 71 19 0.0 0.0 0.00 0.00 0.00 99 1014.0
20260510060913 70 345 0.0 0.0 0.00 0.00 0.00 99 1014.4
20260510060410 71 313 0.0 0.0 0.00 0.00 0.00 99 1014.2
20260510055906 71 6 0.0 0.0 0.00 0.00 0.00 99 1014.2
20260510055402 70 356 0.0 0.0 0.00 0.00 0.00 99 1014.5
20260510054900 71 357 0.0 0.0 0.00 0.00 0.00 99 1014.4
20260510054356 70 345 0.0 0.0 0.00 0.00 0.00 99 1014.6
20260510053851 70 342 0.0 0.0 0.00 0.00 0.00 99 1014.8
20260510053347 71 347 0.0 0.0 0.00 0.00 0.00 99 1014.8
20260510052843 70 344 0.0 0.0 0.00 0.00 0.00 99 1014.9
20260510052339 70 344 0.0 0.0 0.00 0.00 0.00 99 1015.1
20260510051835 71 344 0.0 0.0 0.00 0.00 0.00 99 1015.1
20260510051332 71 344 0.0 0.0 0.00 0.00 0.00 99 1015.3
20260510050830 71 340 0.0 0.0 0.00 0.00 0.00 99 1015.1
20260510050326 71 332 0.0 0.0 0.00 0.00 0.00 99 1015.3
20260510045823 71 332 0.0 0.0 0.00 0.00 0.00 99 1015.3
20260510045319 71 348 0.0 0.0 0.00 0.00 0.00 99 1015.3
20260510044817 71 343 0.0 0.0 0.00 0.00 0.00 99 1015.3
20260510044313 71 347 0.0 0.0 0.00 0.00 0.00 99 1015.4
20260510043810 71 341 0.0 0.0 0.00 0.00 0.00 99 1015.2
20260510043306 71 344 0.0 0.0 0.00 0.00 0.00 99 1015.2
20260510042804 71 339 0.0 0.0 0.00 0.00 0.00 99 1015.7
20260510042259 71 344 0.0 0.0 0.00 0.00 0.00 99 1015.4
20260510041756 71 346 0.0 0.0 0.00 0.00 0.00 99 1015.4
20260510041253 71 343 0.0 0.0 0.00 0.00 0.00 99 1015.6
20260510040751 71 308 0.0 0.0 0.00 0.00 0.00 99 1015.3
20260510040247 71 331 0.0 0.0 0.00 0.00 0.00 99 1015.4
20260510035743 71 334 0.0 0.0 0.00 0.14 0.14 99 1015.4
20260510035239 71 309 0.0 0.0 0.00 0.14 0.14 99 1015.4
20260510034735 71 332 0.0 0.0 0.00 0.14 0.14 99 1015.5
20260510034233 71 336 0.0 0.0 0.00 0.14 0.14 99 1015.7
20260510033729 71 323 0.0 0.0 0.00 0.14 0.14 99 1015.3
20260510033227 71 92 0.0 0.0 0.00 0.14 0.14 99 1015.5
20260510032723 71 243 0.0 0.0 0.00 0.14 0.14 99 1015.7
20260510032219 71 7 0.0 0.0 0.00 0.14 0.14 99 1015.6
20260510031714 71 337 0.0 0.0 0.00 0.14 0.14 99 1015.5
20260510031210 71 344 0.0 0.0 0.00 0.14 0.14 99 1015.6
20260510030709 71 338 0.0 0.0 0.00 0.14 0.14 99 1015.6
20260510030208 72 344 0.0 0.0 0.00 0.14 0.14 99 1015.2
20260510025705 72 208 0.0 0.0 0.00 0.14 0.14 99 1015.4
20260510025202 72 330 0.0 0.0 0.00 0.14 0.14 99 1015.3
20260510024658 72 344 0.0 0.0 0.00 0.14 0.14 99 1015.2
20260510024155 71 312 0.0 0.0 0.00 0.14 0.14 99 1015.2
20260510023651 71 343 0.0 0.0 0.00 0.14 0.14 99 1014.8
20260510023148 72 97 0.0 0.0 0.00 0.14 0.14 99 1014.4
20260510022643 72 348 0.0 0.0 0.00 0.14 0.14 99 1014.9
20260510022138 72 308 0.0 0.0 0.00 0.14 0.14 99 1015.2
20260510021634 71 208 0.0 0.0 0.00 0.14 0.14 99 1014.6
20260510021132 71 339 0.0 0.0 0.00 0.14 0.14 99 1014.6
20260510020631 71 339 0.0 0.0 0.00 0.14 0.14 99 1014.5
20260510020127 71 348 0.0 0.0 0.00 0.14 0.14 99 1014.4
20260510015624 72 348 0.0 0.0 0.00 0.14 0.14 99 1014.7
20260510015120 72 329 0.0 0.0 0.00 0.14 0.14 99 1014.5
20260510014615 72 342 0.0 0.0 0.00 0.14 0.14 99 1014.2
20260510014114 72 333 0.0 0.0 0.00 0.14 0.14 99 1014.0
20260510013613 71 2 0.0 0.0 0.00 0.14 0.14 99 1014.4
20260510013109 71 248 0.0 0.0 0.00 0.14 0.14 99 1014.2
20260510012608 71 347 0.0 0.0 0.00 0.14 0.14 99 1014.1
20260510012105 71 344 0.0 0.0 0.00 0.14 0.14 99 1014.1
20260510011604 71 341 0.0 0.0 0.00 0.14 0.14 99 1014.0
20260510011101 71 342 0.0 0.0 0.00 0.14 0.14 99 1013.8
20260510010557 71 339 0.0 0.0 0.00 0.14 0.14 99 1013.6
20260510010055 71 350 0.0 0.0 0.00 0.14 0.14 99 1013.6
20260510005550 71 347 0.0 0.0 0.00 0.14 0.14 99 1013.7
20260510005048 71 1 0.0 0.0 0.00 0.14 0.14 99 1013.8
20260510004545 71 341 0.0 0.0 0.00 0.14 0.14 99 1014.2
20260510004043 72 344 0.0 0.0 0.00 0.14 0.14 99 1014.1
20260510003540 72 346 0.0 0.0 0.00 0.14 0.14 99 1014.3
20260510003035 72 309 0.0 0.0 0.00 0.14 0.14 99 1014.4
20260510002531 72 330 0.0 0.0 0.00 0.14 0.14 99 1013.9
20260510002028 72 264 0.0 0.0 0.07 0.14 0.14 99 1014.4
20260510001525 72 359 0.0 0.0 0.07 0.14 0.14 99 1014.1
20260510001023 72 285 0.0 0.0 0.00 0.13 0.13 99 1014.1
20260510000518 72 288 0.0 0.0 0.05 0.13 0.13 99 1014.1
20260510000016 72 333 0.0 0.0 0.05 0.13 0.13 99 1014.1
20260509235512 72 341 0.0 0.0 0.00 0.12 0.12 99 1014.0
20260509235009 72 330 0.0 0.0 0.00 0.12 0.12 98 1014.2
20260509234505 72 335 0.0 0.0 0.00 0.12 0.12 98 1014.0
20260509234003 72 337 0.0 0.0 0.00 0.12 0.12 98 1013.9
20260509233500 72 328 0.0 0.0 0.00 0.12 0.12 98 1013.9
20260509232956 72 342 0.0 0.0 0.00 0.12 0.12 98 1014.1
20260509232455 72 349 0.0 0.0 0.00 0.12 0.12 98 1013.6
20260509231950 72 333 0.0 0.0 0.00 0.12 0.12 98 1013.9
20260509231447 72 280 0.0 0.0 0.00 0.12 0.12 98 1013.7
20260509230945 72 343 0.0 0.0 0.00 0.12 0.12 97 1013.9
20260509230441 72 313 0.0 0.0 0.00 0.12 0.12 97 1013.7
20260509225937 73 7 0.0 0.0 0.00 0.12 0.12 97 1013.6
20260509225434 73 100 0.0 0.0 0.00 0.12 0.12 97 1013.8
20260509224930 73 327 0.0 0.0 0.00 0.12 0.12 97 1013.9
20260509224425 73 341 0.0 0.0 0.00 0.12 0.12 97 1013.8
20260509223923 73 334 0.0 0.0 0.00 0.12 0.12 97 1014.0
20260509223419 74 277 0.0 0.0 0.00 0.12 0.12 96 1014.2
20260509222917 75 295 0.0 0.0 0.00 0.12 0.12 96 1014.0
20260509222412 75 26 0.0 0.0 0.07 0.12 0.12 96 1013.9
20260509221908 75 329 0.0 0.0 0.12 0.12 0.12 96 1013.7
20260509221405 75 314 0.0 0.0 0.05 0.11 0.11 95 1013.9
20260509220901 75 309 0.0 0.0 0.00 0.10 0.10 95 1014.0
20260509220357 75 14 0.0 0.0 0.00 0.10 0.10 95 1013.5
20260509215852 75 330 0.0 0.0 0.00 0.10 0.10 95 1013.7
20260509215349 75 321 0.0 0.0 0.00 0.10 0.10 95 1013.6
20260509214846 75 300 0.0 0.0 0.00 0.10 0.10 96 1013.5
20260509214343 75 300 0.0 0.0 0.00 0.10 0.10 96 1013.6
20260509213840 75 19 0.0 0.0 0.00 0.10 0.10 97 1013.7
20260509213335 75 335 0.0 0.0 0.00 0.10 0.10 97 1013.8
20260509212833 76 344 0.0 0.0 0.00 0.10 0.10 97 1013.8
20260509212331 76 3 0.0 0.0 0.00 0.10 0.10 97 1013.8
20260509211827 76 39 0.0 0.0 0.00 0.10 0.10 97 1013.6
20260509211323 76 336 0.0 0.0 0.00 0.10 0.10 96 1013.7
20260509210819 76 351 0.0 0.0 0.00 0.10 0.10 96 1013.7
20260509210317 77 339 0.0 0.0 0.00 0.10 0.10 96 1013.7
20260509205817 77 354 0.0 0.0 0.00 0.10 0.10 96 1013.7
20260509205312 77 344 0.0 0.0 0.00 0.10 0.10 96 1013.4
20260509204808 77 8 0.0 0.0 0.00 0.10 0.10 95 1013.4
20260509204304 77 340 0.0 0.0 0.00 0.10 0.10 95 1013.2
20260509203800 77 5 0.0 0.0 0.00 0.10 0.10 95 1013.3
20260509203258 77 345 0.0 0.0 0.00 0.10 0.10 94 1013.3
20260509202754 77 289 0.0 0.0 0.19 0.10 0.10 93 1013.3
20260509202250 77 328 0.0 0.0 0.42 0.10 0.10 93 1013.5
20260509201750 79 317 0.0 0.0 0.31 0.08 0.08 91 1013.4
20260509201247 79 250 0.0 0.0 0.00 0.03 0.03 89 1013.8
20260509200743 79 316 0.0 0.0 0.00 0.03 0.03 88 1013.7
20260509200238 80 298 0.0 0.0 0.00 0.03 0.03 87 1013.4
20260509195734 80 218 0.0 0.0 0.00 0.03 0.03 87 1013.2
20260509195230 80 332 0.0 0.0 0.00 0.03 0.03 87 1013.2
20260509194724 80 236 0.0 0.0 0.00 0.03 0.03 88 1013.4
20260509194221 79 287 0.0 0.0 0.00 0.03 0.03 88 1013.5
20260509193718 79 300 0.0 0.0 0.00 0.03 0.03 88 1013.5
20260509193217 80 339 0.0 0.0 0.00 0.03 0.03 88 1013.3
20260509192714 80 343 0.0 0.0 0.00 0.03 0.03 87 1013.3
20260509192209 80 337 0.0 0.0 0.07 0.03 0.03 87 1013.3
20260509191705 80 338 0.0 0.0 0.07 0.03 0.03 86 1013.2
20260509191201 80 324 0.0 0.0 0.00 0.02 0.02 85 1013.3
20260509190657 80 332 0.0 0.0 0.00 0.02 0.02 85 1013.2
20260509190155 80 329 0.0 0.0 0.00 0.02 0.02 83 1013.2
20260509185653 80 304 0.0 0.0 0.00 0.02 0.02 82 1013.2
20260509185148 80 347 0.0 0.0 0.00 0.02 0.02 80 1013.2
20260509184646 81 312 0.0 0.0 0.00 0.02 0.02 80 1013.6
20260509184143 81 298 0.0 0.0 0.00 0.02 0.02 80 1013.5
20260509183639 82 298 0.0 0.0 0.00 0.02 0.02 79 1013.4
20260509183134 82 260 0.0 0.0 0.00 0.02 0.02 79 1013.6
20260509182630 83 309 0.0 0.0 0.00 0.02 0.02 78 1013.5
20260509182128 83 243 0.0 0.0 0.00 0.02 0.02 77 1013.6
20260509181626 84 245 0.0 0.0 0.00 0.02 0.02 78 1013.9
20260509181123 84 343 0.0 0.0 0.00 0.02 0.02 77 1013.9
20260509180620 84 182 0.0 0.0 0.00 0.02 0.02 76 1013.8
20260509180116 84 345 0.0 0.0 0.00 0.02 0.02 76 1013.7
20260509175611 84 255 0.0 0.0 0.00 0.02 0.02 76 1013.7
20260509175109 84 75 0.0 0.0 0.00 0.02 0.02 77 1013.8
20260509174605 83 293 0.0 0.0 0.00 0.02 0.02 77 1013.8
20260509174100 84 248 0.0 0.0 0.00 0.02 0.02 76 1013.7
20260509173555 83 315 0.0 0.0 0.00 0.02 0.02 78 1014.1
20260509173052 83 323 0.0 0.0 0.00 0.02 0.02 78 1013.9
20260509172549 83 290 0.0 0.0 0.00 0.02 0.02 78 1013.8
20260509172044 83 325 0.0 0.0 0.00 0.02 0.02 79 1013.9
20260509171541 83 205 0.0 0.0 0.00 0.02 0.02 79 1013.8
20260509171037 82 312 0.0 0.0 0.00 0.02 0.02 80 1013.9
20260509170533 82 280 0.0 0.0 0.00 0.02 0.02 80 1013.8
20260509170029 82 319 0.0 0.0 0.00 0.02 0.02 80 1013.8
20260509165527 82 353 0.0 0.0 0.00 0.02 0.02 81 1013.8
20260509165023 82 351 0.0 0.0 0.00 0.02 0.02 81 1014.1
20260509164519 82 348 0.0 0.0 0.00 0.02 0.02 81 1014.0
20260509164015 82 347 0.0 0.0 0.00 0.02 0.02 81 1014.0
20260509163514 82 10 0.0 0.0 0.00 0.02 0.02 81 1014.2
20260509163014 81 332 0.0 0.0 0.00 0.02 0.02 83 1014.1
20260509162512 80 348 0.0 0.0 0.00 0.02 0.02 84 1014.2
20260509162008 80 348 0.0 0.0 0.00 0.02 0.02 84 1014.3
20260509161504 80 346 0.0 0.0 0.00 0.02 0.02 84 1014.4
20260509160959 80 340 0.0 0.0 0.00 0.02 0.02 83 1014.7
20260509160455 80 218 0.0 0.0 0.00 0.02 0.02 82 1014.4
20260509155956 80 180 0.0 0.0 0.00 0.02 0.02 83 1014.3
20260509155452 80 309 0.0 0.0 0.00 0.02 0.02 83 1014.2
20260509154949 81 359 0.0 0.0 0.00 0.02 0.02 82 1014.6
20260509154445 81 288 0.0 0.0 0.00 0.02 0.02 83 1014.2
20260509153943 80 334 0.0 0.0 0.00 0.02 0.02 84 1014.2
20260509153439 79 336 0.0 0.0 0.00 0.02 0.02 85 1014.3
20260509152937 79 317 0.0 0.0 0.00 0.02 0.02 85 1014.1
20260509152432 79 305 0.0 0.0 0.00 0.02 0.02 85 1014.3
20260509151930 79 339 0.0 0.0 0.00 0.02 0.02 86 1014.3
20260509151426 79 32 0.0 0.0 0.00 0.02 0.02 85 1014.3
20260509150924 79 326 0.0 0.0 0.00 0.02 0.02 85 1014.7
20260509150421 80 329 0.0 0.0 0.00 0.02 0.02 84 1014.7
20260509145920 80 281 0.0 0.0 0.00 0.02 0.02 84 1014.7
20260509145419 79 259 0.0 0.0 0.00 0.02 0.02 86 1014.5
20260509144915 79 278 0.0 0.0 0.00 0.02 0.02 85 1014.4
20260509144412 79 359 0.0 0.0 0.00 0.02 0.02 86 1014.4
20260509143909 79 325 0.0 0.0 0.00 0.02 0.02 85 1014.5
20260509143407 79 306 0.0 0.0 0.00 0.02 0.02 85 1014.3
20260509142903 79 336 0.0 0.0 0.00 0.02 0.02 86 1014.4
20260509142359 79 345 0.0 0.0 0.00 0.02 0.02 86 1014.5
20260509141855 78 243 0.0 0.0 0.00 0.02 0.02 87 1014.2
20260509141352 78 284 0.0 0.0 0.00 0.02 0.02 87 1014.5
20260509140848 78 285 0.0 0.0 0.00 0.02 0.02 87 1014.5
20260509140345 78 341 0.0 0.0 0.00 0.02 0.02 88 1014.8
20260509135844 77 108 0.0 0.0 0.00 0.02 0.02 88 1014.5
20260509135341 77 293 0.0 0.0 0.00 0.02 0.02 89 1014.7
20260509134838 77 244 0.0 0.0 0.00 0.02 0.02 89 1014.6
20260509134335 77 304 0.0 0.0 0.00 0.02 0.02 89 1014.2
20260509133832 77 260 0.0 0.0 0.00 0.02 0.02 90 1014.3
20260509133328 77 333 0.0 0.0 0.00 0.02 0.02 90 1014.1
20260509132828 76 290 0.0 0.0 0.00 0.02 0.02 91 1013.9
20260509132325 76 357 0.0 0.0 0.00 0.02 0.02 91 1013.7
20260509131822 76 317 0.0 0.0 0.00 0.02 0.02 92 1013.7
20260509131319 76 335 0.0 0.0 0.00 0.02 0.02 92 1013.7
20260509130815 75 354 0.0 0.0 0.00 0.02 0.02 93 1013.6
20260509130311 75 218 0.0 0.0 0.00 0.02 0.02 94 1013.7
20260509125808 75 5 0.0 0.0 0.00 0.02 0.02 95 1013.9
20260509125307 74 0 0.0 0.0 0.00 0.02 0.02 96 1013.7
20260509124801 74 350 0.0 0.0 0.00 0.02 0.02 97 1013.7
20260509124257 73 333 0.0 0.0 0.00 0.02 0.02 97 1013.6
20260509123756 73 327 0.0 0.0 0.00 0.02 0.02 98 1013.5
20260509123253 73 38 0.0 0.0 0.00 0.02 0.02 99 1013.7
20260509122748 72 121 0.0 0.0 0.00 0.02 0.02 99 1013.5
20260509122245 72 277 0.0 0.0 0.00 0.02 0.02 99 1013.5
20260509121742 72 313 0.0 0.0 0.00 0.02 0.02 99 1013.3
20260509121239 72 358 0.0 0.0 0.00 0.02 0.02 99 1013.2
20260509120737 71 320 0.0 0.0 0.00 0.02 0.02 99 1013.3
20260509120235 71 272 0.0 0.0 0.00 0.02 0.02 99 1013.4
20260509115733 71 342 0.0 0.0 0.00 0.02 0.02 99 1013.3
20260509115229 70 313 0.0 0.0 0.00 0.02 0.02 99 1013.2
20260509114728 70 64 0.0 0.0 0.00 0.02 0.02 99 1013.2
20260509114226 70 241 0.0 0.0 0.00 0.02 0.02 99 1013.1
20260509113725 70 310 0.0 0.0 0.00 0.02 0.02 99 1012.9
20260509113221 70 191 0.0 0.0 0.00 0.02 0.02 99 1012.9
20260509112718 69 331 0.0 0.0 0.00 0.02 0.02 99 1013.2
20260509112215 69 332 0.0 0.0 0.00 0.02 0.02 99 1013.0
20260509111712 69 338 0.0 0.0 0.00 0.02 0.02 99 1013.0